COSMOS 2491 DEB *, 45128

Orbit data source: Space-Track

COSMOS 2491 DEB *, 45128 is space debris in LEO originally from a launch on Wed, 25 Dec 2013 UTC launched from the Plesetsk Missile And Space Complex (PKMTR). Debris objects in space refer to the collection of defunct objects orbiting the Earth. Examples of debris include non-operational satellites, rocket bodies, and fragments generated from explosions, collisions, or faulty payload assembly.

Loading next visibility...
Identifier
45128, 2013-076AA
Orbit
LEO
Country
Flag of CISCIS
Related business
Manufacturer
TsNIIKhM
Mission
Spacecraft
Bus & Motor
Unknown
Mass
Unknown
Launch date (UTC)
2013-12-25 (12 years ago)
Launch vehicle
Unknown
Launch site
Plesetsk Missile And Space Complex (PKMTR)
Object type
Payload
Rocket body
Debris
Shape & HBR
Unknown
Radar Cross Section
Small (<0.1 m²)

Expand to show TLE details & history
Last TLE update: 1 month ago

TLE from 1 month ago
0 COSMOS 2491 DEB *
1 45128U 13076AA  25211.56905204  .00003666  00000-0  11834-2 0  9999
2 45128  81.2011 329.6395 0024301 130.6707 229.6597 14.38847801286208
Epoch: 2025-07-30T13:39Z
TLE epoch observation values (Epoch: 2025-07-30T13:39:26.096Z)
Latitude
-0.00003°
Longitude
176.33436°
Altitude
776.504 km
Speed
7.46 km/s
True Right ascension
21h 58m 33s
True Declination
0° 00' 00"
Sunlit
Object was in full shadow at epoch
Visualization orbit readout
Latitude
Unknown
Longitude
Unknown
Altitude
Unknown
Speed
Unknown
Apparent Right ascension
Unknown
Apparent Declination
Unknown
Sunlit
N/A
Visualization observer readout
Local Sidereal Time
16:14:09
Azimuth
Unknown
Elevation
Unknown
Doppler factor
Unknown
Orbital elements
Apogee altitude
776.791 km
Perigee altitude
742.101 km
Semi-major axis
7,137.583 km
Eccentricity
0.00243
Inclination
81.2011°
RAAN
329.6395°
Arg. of periapsis
130.6707°
True anomaly
229.44786°
Mean anomaly
229.6597°
Eccentric anomaly
229.55374°
Mean motion
3.59929 °/min
Orbital period
100.02 mins
BSTAR
0.0011834
Loading maneuver chart data...
Computing Atmospheric mass density...
Loading historical data...
Loading historical data...
Loading historical data...
Loading historical data...
Loading historical data...
Loading historical data...
Loading historical data...

Documentation

Showing up to 5 results
|